GW3624 Weather Reports


time (UTC)temp
C
wind
direction
speed
KPH
gust
KPH
rain 1hr
cm
rain 24hr
cm
rain mn
cm
humidity
%
barometer
mb
20260509043507 12 160 1.6 4.8 0.00 0.00 0.00 66 1010.9
20260509043020 12 180 0.0 0.0 0.00 0.00 0.00 69 1010.9
20260509042510 12 180 0.0 0.0 0.00 0.00 0.00 72 1010.8
20260509042010 12 180 0.0 0.0 0.00 0.00 0.00 70 1010.8
20260509041526 12 180 0.0 0.0 0.00 0.00 0.00 69 1010.9
20260509041010 12 180 0.0 0.0 0.00 0.00 0.00 68 1010.9
20260509040508 12 180 0.0 0.0 0.00 0.00 0.00 67 1010.9
20260509040009 12 180 0.0 0.0 0.00 0.00 0.00 69 1010.9
20260509035506 12 180 0.0 0.0 0.00 0.00 0.00 68 1010.9
20260509035008 12 180 0.0 0.0 0.00 0.00 0.00 68 1010.9
20260509034516 12 180 0.0 1.6 0.00 0.00 0.00 73 1011.0
20260509034011 12 180 0.0 3.2 0.00 0.00 0.00 72 1011.0
20260509033507 13 180 0.0 3.2 0.00 0.00 0.00 70 1011.1
20260509033018 13 186 0.0 4.8 0.00 0.00 0.00 67 1011.2
20260509032507 13 141 1.6 3.2 0.00 0.00 0.00 64 1011.2
20260509032013 13 153 0.0 0.0 0.00 0.00 0.00 64 1011.3
20260509031524 13 153 0.0 3.2 0.00 0.00 0.00 62 1011.4
20260509031010 13 153 0.0 3.2 0.00 0.00 0.00 61 1011.4
20260509030512 13 153 0.0 3.2 0.00 0.00 0.00 62 1011.4
20260509030033 13 153 0.0 3.2 0.00 0.00 0.00 64 1011.4
20260509025510 13 153 0.0 0.0 0.00 0.00 0.00 68 1011.4
20260509025007 13 153 0.0 0.0 0.00 0.00 0.00 67 1011.6
20260509024512 13 153 0.0 0.0 0.00 0.00 0.00 62 1011.5
20260509024006 13 153 0.0 0.0 0.00 0.00 0.00 62 1011.5
20260509023505 13 153 0.0 0.0 0.00 0.00 0.00 62 1011.6
20260509023026 14 152 0.0 0.0 0.00 0.00 0.00 62 1011.5
20260509022507 14 152 0.0 3.2 0.00 0.00 0.00 61 1011.6
20260509022010 15 152 0.0 3.2 0.00 0.00 0.00 58 1011.6
20260509021524 14 152 0.0 1.6 0.00 0.00 0.00 58 1011.7
20260509021010 14 152 0.0 3.2 0.00 0.00 0.00 62 1011.7
20260509020509 15 152 0.0 3.2 0.00 0.00 0.00 60 1011.6
20260509020027 15 152 0.0 1.6 0.00 0.00 0.00 60 1011.6
20260509015507 15 151 0.0 1.6 0.00 0.00 0.00 61 1011.6
20260509015010 15 151 0.0 0.0 0.00 0.00 0.00 61 1011.7
20260509014531 15 151 0.0 0.0 0.00 0.00 0.00 58 1011.7
20260509014010 15 151 0.0 1.6 0.00 0.00 0.00 56 1011.7
20260509013507 15 150 0.0 3.2 0.00 0.00 0.00 54 1011.6
20260509013012 16 147 0.0 3.2 0.00 0.00 0.00 54 1011.6
20260509012509 16 113 0.0 3.2 0.00 0.00 0.00 54 1011.6
20260509012003 16 136 1.6 3.2 0.00 0.00 0.00 52 1011.7
20260509011504 16 145 0.0 3.2 0.00 0.00 0.00 51 1011.6
20260509011002 16 139 0.0 3.2 0.00 0.00 0.00 50 1011.6
20260509010504 16 150 0.0 3.2 0.00 0.00 0.00 50 1011.5
20260509010011 16 129 0.0 3.2 0.00 0.00 0.00 51 1011.5
20260509005504 16 146 0.0 3.2 0.00 0.00 0.00 50 1011.5
20260509005004 17 78 1.6 3.2 0.00 0.00 0.00 49 1011.4
20260509004505 17 155 0.0 4.8 0.00 0.00 0.00 48 1011.4
20260509004004 17 173 3.2 4.8 0.00 0.00 0.00 47 1011.5
20260509003504 17 153 1.6 6.4 0.00 0.00 0.00 46 1011.6
20260509003012 18 156 1.6 6.4 0.00 0.00 0.00 45 1011.6
20260509002508 18 159 1.6 6.4 0.00 0.00 0.00 44 1011.6
20260509002007 18 145 1.6 6.4 0.00 0.00 0.00 44 1011.6
20260509001516 18 157 1.6 6.4 0.00 0.00 0.00 44 1011.8
20260509001006 19 169 0.0 9.7 0.00 0.00 0.00 44 1011.8
20260509000507 19 159 3.2 9.7 0.00 0.00 0.00 44 1011.9
20260509000007 19 172 3.2 8.0 0.00 0.00 0.00 42 1011.9
20260508235503 20 174 4.8 9.7 0.00 0.00 0.00 41 1012.0
20260508235004 20 145 4.8 12.9 0.00 0.00 0.00 40 1012.0
20260508234506 20 150 4.8 12.9 0.00 0.00 0.00 41 1012.0
20260508234003 20 148 4.8 12.9 0.00 0.00 0.00 42 1012.1
20260508233503 20 165 6.4 12.9 0.00 0.00 0.00 40 1012.2
20260508233007 20 178 4.8 9.7 0.00 0.00 0.00 40 1012.2
20260508232504 20 148 3.2 8.0 0.00 0.00 0.00 41 1012.3
20260508232007 20 139 1.6 14.5 0.00 0.00 0.00 41 1012.3
20260508231512 20 172 4.8 16.1 0.00 0.00 0.00 40 1012.3
20260508231009 20 139 4.8 16.1 0.00 0.00 0.00 39 1012.3
20260508230508 20 166 4.8 12.9 0.00 0.00 0.00 39 1012.3
20260508230020 20 156 8.0 14.5 0.00 0.00 0.00 38 1012.4
20260508225510 20 163 6.4 14.5 0.00 0.00 0.00 38 1012.4
20260508225004 20 114 4.8 19.3 0.00 0.00 0.00 37 1012.4
20260508224504 21 158 9.7 19.3 0.00 0.00 0.00 36 1012.4
20260508224003 21 220 6.4 17.7 0.00 0.00 0.00 39 1012.4
20260508223503 21 186 6.4 17.7 0.00 0.00 0.00 37 1012.4
20260508223008 21 171 8.0 17.7 0.00 0.00 0.00 35 1012.4
20260508222505 21 205 8.0 17.7 0.00 0.00 0.00 36 1012.4
20260508222005 21 44 8.0 17.7 0.00 0.00 0.00 36 1012.3
20260508221513 21 65 4.8 20.9 0.00 0.00 0.00 36 1012.4
20260508221005 21 36 9.7 20.9 0.00 0.00 0.00 34 1012.4
20260508220506 21 179 3.2 19.3 0.00 0.00 0.00 35 1012.3
20260508220018 21 159 8.0 19.3 0.00 0.00 0.00 35 1012.4
20260508215510 21 169 6.4 17.7 0.00 0.00 0.00 36 1012.3
20260508215008 21 124 8.0 17.7 0.00 0.00 0.00 35 1012.4
20260508214522 21 155 6.4 17.7 0.00 0.00 0.00 36 1012.4
20260508214009 21 176 9.7 17.7 0.00 0.00 0.00 33 1012.5
20260508213501 21 122 6.4 17.7 0.00 0.00 0.00 34 1012.4
20260508213006 21 187 4.8 17.7 0.00 0.00 0.00 37 1012.4
20260508212503 21 124 8.0 17.7 0.00 0.00 0.00 33 1012.5
20260508212007 21 186 6.4 16.1 0.00 0.00 0.00 35 1012.5
20260508211508 21 167 8.0 19.3 0.00 0.00 0.00 37 1012.4
20260508211006 21 202 9.7 19.3 0.00 0.00 0.00 35 1012.5
20260508210506 21 180 8.0 14.5 0.00 0.00 0.00 36 1012.5
20260508210016 21 93 9.7 17.7 0.00 0.00 0.00 35 1012.4
20260508205507 21 167 8.0 17.7 0.00 0.00 0.00 36 1012.6
20260508205005 21 184 8.0 19.3 0.00 0.00 0.00 35 1012.7
20260508204522 21 159 9.7 20.9 0.00 0.00 0.00 35 1012.8
20260508204009 21 167 11.3 20.9 0.00 0.00 0.00 34 1012.9
20260508203509 21 172 12.9 17.7 0.00 0.00 0.00 37 1013.0
20260508203027 21 172 8.0 19.3 0.00 0.00 0.00 36 1012.9
20260508202510 21 216 8.0 24.1 0.00 0.00 0.00 36 1013.1
20260508202002 21 173 8.0 24.1 0.00 0.00 0.00 37 1013.2
20260508201509 21 214 4.8 22.5 0.00 0.00 0.00 35 1013.2
20260508201012 21 205 12.9 22.5 0.00 0.00 0.00 37 1013.3
20260508200506 21 158 6.4 22.5 0.00 0.00 0.00 33 1013.4
20260508200011 21 186 12.9 22.5 0.00 0.00 0.00 32 1013.6
20260508195507 21 193 8.0 22.5 0.00 0.00 0.00 32 1013.6
20260508195007 21 126 9.7 22.5 0.00 0.00 0.00 36 1013.7
20260508194518 21 219 11.3 19.3 0.00 0.00 0.00 34 1013.7
20260508194007 21 193 9.7 17.7 0.00 0.00 0.00 34 1013.7
20260508193509 21 181 8.0 17.7 0.00 0.00 0.00 32 1013.6
20260508193025 21 196 4.8 19.3 0.00 0.00 0.00 36 1013.7
20260508192509 21 96 8.0 19.3 0.00 0.00 0.00 36 1013.7
20260508192012 21 156 11.3 19.3 0.00 0.00 0.00 35 1013.9
20260508191528 21 124 6.4 14.5 0.00 0.00 0.00 35 1013.9
20260508191008 21 195 3.2 14.5 0.00 0.00 0.00 35 1013.8
20260508190506 21 124 6.4 16.1 0.00 0.00 0.00 35 1013.9
20260508190010 21 90 4.8 17.7 0.00 0.00 0.00 37 1013.8
20260508185508 20 184 9.7 17.7 0.00 0.00 0.00 1014.0
20260508185008 20 195 6.4 14.5 0.00 0.00 0.00 37 1014.1
20260508184516 21 32 6.4 14.5 0.00 0.00 0.00 37 1014.1
20260508184008 21 150 4.8 17.7 0.00 0.00 0.00 36 1014.2
20260508183505 20 80 4.8 17.7 0.00 0.00 0.00 36 1014.2
20260508183020 21 167 6.4 17.7 0.00 0.00 0.00 37 1014.3
20260508182507 21 131 3.2 17.7 0.00 0.00 0.00 37 1014.5
20260508182010 20 125 9.7 17.7 0.00 0.00 0.00 37 1014.6
20260508181527 20 161 6.4 14.5 0.00 0.00 0.00 37 1014.6
20260508181013 20 148 4.8 11.3 0.00 0.00 0.00 40 1014.8
20260508180510 20 86 4.8 16.1 0.00 0.00 0.00 40 1014.8
20260508180028 20 141 4.8 16.1 0.00 0.00 0.00 39 1014.9
20260508175506 20 152 6.4 17.7 0.00 0.00 0.00 40 1015.1
20260508175007 20 172 11.3 17.7 0.00 0.00 0.00 35 1015.2
20260508174528 20 216 4.8 22.5 0.00 0.00 0.00 37 1015.3
20260508174008 20 192 9.7 24.1 0.00 0.00 0.00 39 1015.4
20260508173509 20 146 12.9 24.1 0.00 0.00 0.00 38 1015.6
20260508173019 20 171 3.2 11.3 0.00 0.00 0.00 43 1015.6
20260508172511 20 139 3.2 17.7 0.00 0.00 0.00 40 1015.7
20260508172010 20 217 4.8 17.7 0.00 0.00 0.00 41 1015.8
20260508171522 20 197 6.4 11.3 0.00 0.00 0.00 39 1015.9
20260508171010 19 104 4.8 14.5 0.00 0.00 0.00 39 1016.0
20260508170502 19 129 3.2 14.5 0.00 0.00 0.00 41 1016.1
20260508170007 18 159 6.4 12.9 0.00 0.00 0.00 41 1016.3
20260508165503 19 169 6.4 12.9 0.00 0.00 0.00 40 1016.5
20260508165005 18 99 3.2 11.3 0.00 0.00 0.00 41 1016.4
20260508164511 20 85 4.8 14.5 0.00 0.00 0.00 45 1016.5
20260508164007 18 167 8.0 14.5 0.00 0.00 0.00 43 1016.6
20260508163506 19 122 3.2 12.9 0.00 0.00 0.00 44 1016.6
20260508163031 18 185 4.8 14.5 0.00 0.00 0.00 44 1016.7
20260508162507 18 196 4.8 14.5 0.00 0.00 0.00 43 1016.7
20260508162009 18 98 4.8 11.3 0.00 0.00 0.00 44 1016.8
20260508161520 18 203 3.2 11.3 0.00 0.00 0.00 44 1016.8
20260508161007 18 242 1.6 11.3 0.00 0.00 0.00 47 1017.0
20260508160506 18 161 6.4 17.7 0.00 0.00 0.00 48 1017.1
20260508160025 17 112 6.4 17.7 0.00 0.00 0.00 45 1017.2
20260508155510 17 188 6.4 12.9 0.00 0.00 0.00 49 1017.3
20260508155003 17 167 4.8 9.7 0.00 0.00 0.00 48 1017.4
20260508154508 17 169 3.2 9.7 0.00 0.00 0.00 47 1017.3
20260508154010 17 197 4.8 14.5 0.00 0.00 0.00 43 1017.5
20260508153504 17 118 4.8 14.5 0.00 0.00 0.00 47 1017.5
20260508153024 17 181 6.4 16.1 0.00 0.00 0.00 44 1017.5
20260508152507 17 115 4.8 17.7 0.00 0.00 0.00 42 1017.5
20260508152009 17 194 8.0 17.7 0.00 0.00 0.00 46 1017.5
20260508151526 17 153 9.7 14.5 0.00 0.00 0.00 46 1017.5
20260508151007 17 191 3.2 9.7 0.00 0.00 0.00 50 1017.5
20260508150512 16 165 1.6 9.7 0.00 0.00 0.00 50 1017.6
20260508150028 16 82 3.2 9.7 0.00 0.00 0.00 52 1017.7
20260508145510 16 168 3.2 8.0 0.00 0.00 0.00 52 1017.7
20260508145008 16 110 3.2 8.0 0.00 0.00 0.00 53 1017.7
20260508144534 16 80 3.2 11.3 0.00 0.00 0.00 55 1017.6
20260508144008 15 152 1.6 11.3 0.00 0.00 0.00 57 1017.7
20260508143507 15 93 1.6 9.7 0.00 0.00 0.00 56 1017.7
20260508143009 15 156 3.2 11.3 0.00 0.00 0.00 61 1017.8
20260508142504 14 200 3.2 11.3 0.00 0.00 0.00 61 1017.8
20260508142006 14 86 3.2 9.7 0.00 0.00 0.00 61 1017.8
20260508141515 13 191 1.6 9.7 0.00 0.00 0.00 63 1017.8
20260508141009 13 158 3.2 11.3 0.00 0.00 0.00 63 1017.9
20260508140514 13 155 3.2 11.3 0.00 0.00 0.00 62 1018.0
20260508140029 13 108 3.2 8.0 0.00 0.00 0.00 62 1018.0
20260508135512 12 51 1.6 8.0 0.00 0.00 0.00 63 1017.9
20260508135013 12 113 3.2 8.0 0.00 0.00 0.00 64 1017.9
20260508134528 12 179 3.2 8.0 0.00 0.00 0.00 67 1017.9
20260508134012 12 190 1.6 6.4 0.00 0.00 0.00 66 1017.9
20260508133513 12 158 1.6 6.4 0.00 0.00 0.00 66 1018.0
20260508133027 11 120 1.6 4.8 0.00 0.00 0.00 70 1017.9
20260508132508 11 168 1.6 4.8 0.00 0.00 0.00 71 1017.9
20260508132003 11 168 1.6 4.8 0.00 0.00 0.00 71 1018.0
20260508131511 10 88 0.0 3.2 0.00 0.00 0.00 73 1018.0
20260508131007 10 97 1.6 3.2 0.00 0.00 0.00 73 1017.9
20260508130508 10 64 1.6 3.2 0.00 0.00 0.00 77 1017.9
20260508130018 9 64 1.6 3.2 0.00 0.00 0.00 76 1017.9
20260508125509 9 39 0.0 4.8 0.00 0.00 0.00 83 1017.8
20260508125011 8 52 0.0 4.8 0.00 0.00 0.00 80 1017.8
20260508124521 8 68 1.6 3.2 0.00 0.00 0.00 82 1017.8
20260508124011 8 60 0.0 3.2 0.00 0.00 0.00 85 1017.7
20260508123508 7 62 0.0 3.2 0.00 0.00 0.00 87 1017.7
20260508123032 7 65 0.0 3.2 0.00 0.00 0.00 89 1017.7
20260508122508 6 120 0.0 4.8 0.00 0.00 0.00 90 1017.7
20260508122010 6 72 0.0 4.8 0.00 0.00 0.00 90 1017.6
20260508121530 6 85 3.2 4.8 0.00 0.00 0.00 91 1017.6
20260508121009 5 91 0.0 3.2 0.00 0.00 0.00 92 1017.7
20260508120508 5 60 0.0 0.0 0.00 0.00 0.00 93 1017.6
20260508120015 5 146 0.0 0.0 0.00 0.00 0.00 93 1017.5
20260508115510 4 8 0.0 0.0 0.00 0.00 0.00 94 1017.4
20260508115008 3 11 0.0 0.0 0.00 0.00 0.00 94 1017.5
20260508114504 3 26 0.0 0.0 0.00 0.00 0.00 94 1017.5
20260508114003 3 197 0.0 0.0 0.00 0.00 0.00 94 1017.4
20260508113503 2 198 0.0 0.0 0.00 0.00 0.00 94 1017.4
20260508113004 2 198 0.0 0.0 0.00 0.00 0.00 94 1017.4
20260508112504 2 197 0.0 0.0 0.00 0.00 0.00 93 1017.4
20260508112004 2 197 0.0 0.0 0.00 0.00 0.00 93 1017.3
20260508111507 2 198 0.0 0.0 0.00 0.00 0.00 93 1017.3
20260508111006 2 198 0.0 0.0 0.00 0.00 0.00 93 1017.3
20260508110507 2 146 0.0 0.0 0.00 0.00 0.00 93 1017.3
20260508110013 2 161 0.0 0.0 0.00 0.00 0.00 93 1017.2
20260508105506 2 165 0.0 0.0 0.00 0.00 0.00 93 1017.1
20260508105009 2 161 0.0 0.0 0.00 0.00 0.00 93 1017.1
20260508104517 2 161 0.0 0.0 0.00 0.00 0.00 93 1017.2
20260508104009 2 162 0.0 0.0 0.00 0.00 0.00 93 1017.1
20260508103507 2 163 0.0 0.0 0.00 0.00 0.00 93 1017.0
20260508103004 2 160 0.0 0.0 0.00 0.00 0.00 93 1017.0
20260508102503 2 161 0.0 0.0 0.00 0.00 0.00 93 1016.9
20260508102003 2 157 0.0 0.0 0.00 0.00 0.00 93 1016.8
20260508101519 2 143 0.0 0.0 0.00 0.00 0.00 93 1016.9
20260508101004 2 193 0.0 0.0 0.00 0.00 0.00 93 1016.7
20260508100503 2 195 0.0 0.0 0.00 0.00 0.00 93 1016.7
20260508100008 2 196 0.0 0.0 0.00 0.00 0.00 92 1016.7
20260508095507 2 196 0.0 0.0 0.00 0.00 0.00 92 1016.7
20260508095006 2 197 0.0 0.0 0.00 0.00 0.00 92 1016.8
20260508094514 2 197 0.0 0.0 0.00 0.00 0.00 92 1016.8
20260508094009 2 197 0.0 0.0 0.00 0.00 0.00 92 1016.8
20260508093509 2 198 0.0 0.0 0.00 0.00 0.00 93 1016.8
20260508093037 2 198 0.0 0.0 0.00 0.00 0.00 93 1016.7
20260508092506 2 198 0.0 0.0 0.00 0.00 0.00 93 1016.7
20260508092010 2 198 0.0 0.0 0.00 0.00 0.00 92 1016.7
20260508091525 2 198 0.0 0.0 0.00 0.00 0.00 92 1016.7
20260508091009 2 198 0.0 0.0 0.00 0.00 0.00 92 1016.7
20260508090502 2 198 0.0 0.0 0.00 0.00 0.00 92 1016.7
20260508090022 2 198 0.0 0.0 0.00 0.00 0.00 92 1016.7
20260508085503 2 198 0.0 0.0 0.00 0.00 0.00 91 1016.7
20260508085003 3 198 0.0 0.0 0.00 0.00 0.00 92 1016.8
20260508084508 3 198 0.0 0.0 0.00 0.00 0.00 92 1016.8
20260508084008 3 198 0.0 0.0 0.00 0.00 0.00 92 1016.8
20260508083507 3 198 0.0 0.0 0.00 0.00 0.00 92 1016.8
20260508083020 3 198 0.0 0.0 0.00 0.00 0.00 92 1017.0
20260508082506 3 198 0.0 0.0 0.00 0.00 0.00 91 1016.8
20260508082010 3 198 0.0 0.0 0.00 0.00 0.00 91 1016.8
20260508081520 3 198 0.0 0.0 0.00 0.00 0.00 91 1016.9
20260508081009 3 198 0.0 0.0 0.00 0.00 0.00 91 1017.0
20260508080513 3 198 0.0 0.0 0.00 0.00 0.00 91 1017.0
20260508080035 3 198 0.0 0.0 0.00 0.00 0.00 91 1017.0
20260508075503 3 198 0.0 0.0 0.00 0.00 0.00 91 1017.0
20260508075005 3 198 0.0 0.0 0.00 0.00 0.00 91 1016.8
20260508074513 3 198 0.0 0.0 0.00 0.00 0.00 91 1017.0
20260508074004 3 198 0.0 3.2 0.00 0.00 0.00 91 1017.0
20260508073507 3 198 0.0 3.2 0.00 0.00 0.00 90 1017.0
20260508073013 3 198 0.0 3.2 0.00 0.00 0.00 90 1017.0
20260508072506 3 198 0.0 3.2 0.00 0.00 0.00 90 1017.1
20260508072007 3 198 0.0 3.2 0.00 0.00 0.00 91 1017.2
20260508071517 3 198 0.0 3.2 0.00 0.00 0.00 91 1017.1
20260508071008 3 198 0.0 3.2 0.00 0.00 0.00 90 1017.2
20260508070507 3 198 0.0 1.6 0.00 0.00 0.00 90 1017.2
20260508070022 3 198 0.0 0.0 0.00 0.00 0.00 90 1017.3
20260508065508 3 198 0.0 3.2 0.00 0.00 0.00 90 1017.2
20260508065011 3 198 0.0 3.2 0.00 0.00 0.00 89 1017.2
20260508064524 4 198 0.0 3.2 0.00 0.00 0.00 89 1017.3
20260508064012 4 198 0.0 3.2 0.00 0.00 0.00 89 1017.4
20260508063506 4 198 0.0 1.6 0.00 0.00 0.00 90 1017.3
20260508063010 3 198 0.0 0.0 0.00 0.00 0.00 89 1017.2
20260508062507 3 198 0.0 0.0 0.00 0.00 0.00 88 1017.2
20260508062007 4 198 0.0 3.2 0.00 0.00 0.00 88 1017.2
20260508061515 4 198 0.0 3.2 0.00 0.00 0.00 88 1017.1
20260508061011 4 198 0.0 3.2 0.00 0.00 0.00 88 1017.1
20260508060508 5 198 0.0 3.2 0.00 0.00 0.00 88 1017.1
20260508060022 5 198 0.0 3.2 0.00 0.00 0.00 88 1017.2
20260508055507 5 198 0.0 3.2 0.00 0.00 0.00 87 1017.2
20260508055011 5 198 0.0 0.0 0.00 0.00 0.00 86 1017.2
20260508054524 5 198 0.0 3.2 0.00 0.00 0.00 86 1017.3
20260508054012 5 198 0.0 3.2 0.00 0.00 0.00 86 1017.3
20260508053510 5 198 0.0 0.0 0.00 0.00 0.00 85 1017.3
20260508053024 5 198 0.0 0.0 0.00 0.00 0.00 86 1017.3
20260508052513 5 198 0.0 0.0 0.00 0.00 0.00 85 1017.3
20260508052007 5 198 0.0 0.0 0.00 0.00 0.00 83 1017.3
20260508051510 6 198 0.0 0.0 0.00 0.00 0.00 81 1017.2
20260508051010 6 198 0.0 0.0 0.00 0.00 0.00 82 1017.3
20260508050508 6 198 0.0 0.0 0.00 0.00 0.00 82 1017.4
20260508050018 6 198 0.0 1.6 0.00 0.00 0.00 82 1017.4
20260508045506 6 198 0.0 3.2 0.00 0.00 0.00 82 1017.4
20260508045009 6 198 0.0 3.2 0.00 0.00 0.00 80 1017.4
20260508044522 6 198 0.0 3.2 0.00 0.00 0.00 80 1017.4
20260508044007 6 198 0.0 0.0 0.00 0.00 0.00 81 1017.4